Weather in Uchkuprik

Uzbekistan     40°32′42″N   71°03′27″E
temp.,
°C
wind,
m/s
gust,
m/s
humid.,
%
clouds,
%
prec.,
mm/h
press.,
hPa
HPBL,
m
9 may, sun
sun923:00+26ssw483844 0.0 1011325
02:00+25ene2342100 0.0 1011117
05:00+22ene345477 0.0 1011199
08:00+24ne114789 0.0 1012440
11:00+29w653586 0.0 10111584
14:00+30wsw562996 0.0 10101377
17:00+30wsw892878 0.0 10081122
20:00+27wsw9143794 0.0 1010837
10 may, mon
mon1023:00+25wsw81439100 0.0 1009805
02:00+24wsw3742100 0.0 1009268
05:00+22wsw245213 0.0 1009209
08:00+24wsw344854 0.0 1010583
11:00+28wsw443578 0.0 10081357
14:00+31wsw552950 0.0 10061820
17:00+30w782999 0.0 10051414
20:00+24wsw141943100 0.2 1007823
11 may, tue
tue1123:00+24wsw81344100 0.2 1007591
02:00+23wsw71245100 0.0 1007649
05:00+21w91246100 0.0 1010676
08:00+22wsw81038100 0.1 1011762
11:00+24wsw91132100 0.1 1011869
14:00+27wsw111221100 0.0 10101348
17:00+27wsw111417100 0.0 10091287
20:00+25wsw111621100 0.0 10101077
12 may, wed
wed1223:00+23wsw914246 0.0 1011820
02:00+21wsw6102999 0.0 1012435
05:00+20wsw41033100 0.0 1013348
08:00+23w67270 0.0 1014841
11:00+26w33200 0.0 10132057
14:00+29w33150 0.0 10112457
17:00+29wsw541595 0.0 10102485
20:00+26wsw582227 0.0 1011538
13 may, thu
thu1323:00+24sw49250 0.0 1010363
02:00+22sw27280 0.0 1009324
05:00+21sw26320 0.0 1010359
08:00+23wsw57380 0.0 1011663
11:00+27wsw54265 0.0 10091394
14:00+29wsw66190 0.0 10082178
17:00+28wsw1012170 0.0 10071241
20:00+25wsw1015150 0.0 1008977